SIA378F LIMC-LEBL

Flight info

Callsign SIA378F
Flight time 1h 10m
Altitude 29000
Route NEDED DCT GEKBA DCT VAMTU DCT KOLON DCT GANGU DCT PADKO DCT DIVKO DCT NILDU DCT BISBA
Aircraft A359/H-SDE2E3GHIJ1J3J4J5LM1ORWXYZ/LB1D1

Departure

Time 2026-05-06 14:46
Airport Milan Malpensa International Airport (LIMC)

Arrival

Time 2026-05-06 15:56
Airport Josep Tarradellas Barcelona-El Prat Airport (LEBL)
Time Latitude Longitude Altitude Speed Heading
2026-05-06 13:52 45.63144 8.71353 743 ft 0 kts 169°
2026-05-06 14:28 45.63149 8.71352 743 ft 4 kts 169°
2026-05-06 14:29 45.63176 8.71344 742 ft 4 kts 169°
2026-05-06 14:29 45.63201 8.71337 742 ft 2 kts 168°
2026-05-06 14:29 45.63222 8.71326 742 ft 4 kts 126°
2026-05-06 14:29 45.63227 8.71294 743 ft 4 kts 78°
2026-05-06 14:30 45.63224 8.71273 742 ft 3 kts 81°
2026-05-06 14:35 45.63227 8.71301 743 ft 8 kts 80°
2026-05-06 14:35 45.63240 8.71401 747 ft 12 kts 79°
2026-05-06 14:36 45.63257 8.71532 744 ft 17 kts 79°
2026-05-06 14:36 45.63284 8.71733 745 ft 22 kts 79°
2026-05-06 14:36 45.63279 8.71842 744 ft 8 kts 139°
2026-05-06 14:36 45.63205 8.71878 745 ft 15 kts 169°
2026-05-06 14:37 45.63093 8.71907 746 ft 18 kts 169°
2026-05-06 14:37 45.62956 8.71944 745 ft 22 kts 169°
2026-05-06 14:37 45.62800 8.71987 745 ft 24 kts 169°
2026-05-06 14:37 45.62632 8.72033 745 ft 25 kts 168°
2026-05-06 14:38 45.62452 8.72083 744 ft 27 kts 169°
2026-05-06 14:38 45.62261 8.72135 745 ft 29 kts 169°
2026-05-06 14:38 45.62065 8.72190 743 ft 30 kts 169°
2026-05-06 14:38 45.61857 8.72246 744 ft 31 kts 169°
2026-05-06 14:39 45.61642 8.72307 746 ft 32 kts 169°
2026-05-06 14:39 45.61453 8.72359 746 ft 19 kts 169°
2026-05-06 14:39 45.61381 8.72254 744 ft 17 kts 247°
2026-05-06 14:39 45.61277 8.72210 746 ft 17 kts 171°
2026-05-06 14:40 45.61148 8.72244 746 ft 21 kts 169°
2026-05-06 14:40 45.60992 8.72287 746 ft 24 kts 169°
2026-05-06 14:40 45.60824 8.72332 746 ft 25 kts 169°
2026-05-06 14:40 45.60660 8.72412 744 ft 25 kts 127°
2026-05-06 14:41 45.60625 8.72659 745 ft 26 kts 95°
2026-05-06 14:41 45.60606 8.72922 745 ft 27 kts 97°
2026-05-06 14:41 45.60597 8.73193 743 ft 27 kts 72°
2026-05-06 14:41 45.60748 8.73338 745 ft 27 kts 21°
2026-05-06 14:42 45.60934 8.73396 747 ft 28 kts 351°
2026-05-06 14:42 45.61125 8.73346 747 ft 27 kts 349°
2026-05-06 14:42 45.61317 8.73292 748 ft 29 kts 349°
2026-05-06 14:42 45.61501 8.73241 746 ft 22 kts 349°
2026-05-06 14:43 45.61605 8.73251 744 ft 13 kts 52°
2026-05-06 14:43 45.61633 8.73388 746 ft 15 kts 86°
2026-05-06 14:43 45.61595 8.73533 744 ft 17 kts 111°
2026-05-06 14:43 45.61596 8.73697 743 ft 9 kts 80°
2026-05-06 14:44 45.61620 8.73730 743 ft 5 kts 12°
2026-05-06 14:44 45.61647 8.73728 744 ft 0 kts 351°
2026-05-06 14:45 45.61664 8.73724 741 ft 12 kts 349°
2026-05-06 14:45 45.61966 8.73641 743 ft 81 kts 349°
2026-05-06 14:45 45.62747 8.73426 743 ft 146 kts 349°
2026-05-06 14:45 45.63878 8.73099 1083 ft 173 kts 351°
2026-05-06 14:46 45.65075 8.72862 1904 ft 175 kts 356°
2026-05-06 14:46 45.66298 8.72823 2719 ft 177 kts
2026-05-06 14:46 45.67516 8.72894 3417 ft 179 kts
2026-05-06 14:46 45.68815 8.72988 3883 ft 196 kts
2026-05-06 14:47 45.70221 8.72780 4298 ft 214 kts 341°
2026-05-06 14:47 45.71529 8.71614 4672 ft 232 kts 311°
2026-05-06 14:47 45.72263 8.69593 5356 ft 232 kts 275°
2026-05-06 14:47 45.72134 8.67318 6201 ft 231 kts 257°
2026-05-06 14:48 45.71876 8.65033 7050 ft 234 kts 261°
2026-05-06 14:48 45.71736 8.62701 7941 ft 237 kts 265°
2026-05-06 14:48 45.71481 8.60408 8863 ft 237 kts 251°
2026-05-06 14:48 45.70759 8.58233 9526 ft 253 kts 238°
2026-05-06 14:49 45.69770 8.56039 10055 ft 271 kts 236°
2026-05-06 14:49 45.68663 8.53722 10493 ft 293 kts 232°
2026-05-06 14:49 45.67083 8.51726 10861 ft 316 kts 210°
2026-05-06 14:49 45.65025 8.50388 11397 ft 332 kts 202°
2026-05-06 14:50 45.62854 8.49165 12239 ft 338 kts 202°
2026-05-06 14:50 45.60656 8.47923 13144 ft 341 kts 202°
2026-05-06 14:50 45.58438 8.46652 13978 ft 345 kts 203°
2026-05-06 14:50 45.56199 8.45358 14758 ft 350 kts 203°
2026-05-06 14:51 45.53928 8.44070 15529 ft 353 kts 201°
2026-05-06 14:51 45.51627 8.42930 16287 ft 357 kts 200°
2026-05-06 14:51 45.49260 8.41796 17076 ft 360 kts 200°
2026-05-06 14:51 45.46874 8.40641 17864 ft 364 kts 200°
2026-05-06 14:52 45.44465 8.39464 18607 ft 368 kts 200°
2026-05-06 14:52 45.42044 8.38275 19438 ft 368 kts 201°
2026-05-06 14:52 45.39627 8.37085 20324 ft 367 kts 201°
2026-05-06 14:52 45.37217 8.35897 21192 ft 367 kts 202°
2026-05-06 14:53 45.34804 8.34707 22035 ft 367 kts 202°
2026-05-06 14:53 45.32391 8.33518 22867 ft 368 kts 202°
2026-05-06 14:53 45.29970 8.32325 23631 ft 369 kts 202°
2026-05-06 14:53 45.27567 8.31142 24245 ft 371 kts 202°
2026-05-06 14:54 45.25126 8.29941 24929 ft 372 kts 202°
2026-05-06 14:54 45.22677 8.28738 25564 ft 374 kts 202°
2026-05-06 14:54 45.20212 8.27527 26168 ft 377 kts 202°
2026-05-06 14:54 45.17724 8.26307 26766 ft 380 kts 202°
2026-05-06 14:55 45.15216 8.25077 27343 ft 382 kts 202°
2026-05-06 14:55 45.12731 8.23726 27966 ft 383 kts 205°
2026-05-06 14:55 45.10267 8.22246 28531 ft 386 kts 206°
2026-05-06 14:55 45.07830 8.20728 28789 ft 389 kts 207°
2026-05-06 14:56 45.05321 8.19133 28816 ft 403 kts 207°
2026-05-06 14:56 45.00115 8.15804 29195 ft 414 kts 207°
2026-05-06 14:56 44.97510 8.14149 30174 ft 405 kts 206°
2026-05-06 14:57 44.94951 8.12530 30880 ft 402 kts 207°
2026-05-06 14:57 44.92353 8.11021 31209 ft 409 kts 200°
2026-05-06 14:57 44.89509 8.10281 31390 ft 424 kts 188°
2026-05-06 14:57 44.86525 8.10273 31606 ft 433 kts 184°
2026-05-06 14:58 44.83504 8.10453 31983 ft 435 kts 183°
2026-05-06 14:58 44.80480 8.10661 32495 ft 434 kts 183°
2026-05-06 14:58 44.77471 8.10875 33014 ft 433 kts 183°
2026-05-06 14:58 44.74510 8.11088 33510 ft 431 kts 183°
2026-05-06 14:59 44.71520 8.11308 33994 ft 430 kts 183°
2026-05-06 14:59 44.68533 8.11527 34302 ft 430 kts 183°
2026-05-06 14:59 44.65539 8.11743 34542 ft 433 kts 183°
2026-05-06 14:59 44.62521 8.11955 34785 ft 435 kts 183°
2026-05-06 15:00 44.59494 8.12164 35061 ft 436 kts 183°
2026-05-06 15:00 44.56459 8.12366 35404 ft 436 kts 183°
2026-05-06 15:00 44.53444 8.12567 35828 ft 433 kts 183°
2026-05-06 15:00 44.50433 8.12765 36142 ft 434 kts 183°
2026-05-06 15:01 44.47451 8.12953 36406 ft 435 kts 183°
2026-05-06 15:01 44.44422 8.13137 36660 ft 437 kts 183°
2026-05-06 15:01 44.41373 8.13320 36788 ft 440 kts 183°
2026-05-06 15:02 44.35268 8.12893 36802 ft 437 kts 194°
2026-05-06 15:02 44.29573 8.10264 36801 ft 428 kts 210°
2026-05-06 15:03 44.24786 8.05450 36824 ft 425 kts 225°
2026-05-06 15:03 44.22912 8.02268 36819 ft 426 kts 238°
2026-05-06 15:03 44.21648 7.98582 36811 ft 429 kts 247°
2026-05-06 15:04 44.19998 7.90535 36822 ft 436 kts 253°
2026-05-06 15:04 44.18565 7.82305 36829 ft 436 kts 252°
2026-05-06 15:05 44.16993 7.74143 36813 ft 436 kts 251°
2026-05-06 15:05 44.15180 7.66092 36815 ft 434 kts 245°
2026-05-06 15:06 44.12226 7.58830 36843 ft 430 kts 233°
2026-05-06 15:06 44.08462 7.52410 36833 ft 433 kts 229°
2026-05-06 15:07 44.04445 7.46176 36843 ft 433 kts 228°
2026-05-06 15:07 44.00440 7.39937 36836 ft 433 kts 229°
2026-05-06 15:08 43.96460 7.33647 36840 ft 433 kts 229°
2026-05-06 15:08 43.92531 7.27409 36828 ft 431 kts 229°
2026-05-06 15:09 43.88581 7.21145 36844 ft 432 kts 229°
2026-05-06 15:09 43.84619 7.14879 36828 ft 432 kts 229°
2026-05-06 15:10 43.80658 7.08632 36827 ft 432 kts 229°
2026-05-06 15:10 43.76699 7.02403 36832 ft 430 kts 229°
2026-05-06 15:11 43.72946 6.96035 36827 ft 430 kts 236°
2026-05-06 15:11 43.70280 6.88873 36840 ft 432 kts 245°
2026-05-06 15:12 43.67982 6.81205 36837 ft 432 kts 246°
2026-05-06 15:12 43.65741 6.73492 36836 ft 433 kts 246°
2026-05-06 15:13 43.63504 6.65862 36834 ft 432 kts 246°
2026-05-06 15:13 43.61391 6.58730 36861 ft 432 kts 246°
2026-05-06 15:14 43.59107 6.51073 36863 ft 432 kts 246°
2026-05-06 15:14 43.56817 6.43414 36852 ft 432 kts 246°
2026-05-06 15:15 43.54535 6.35795 36854 ft 434 kts 246°
2026-05-06 15:15 43.52227 6.28111 36854 ft 434 kts 245°
2026-05-06 15:16 43.49914 6.20431 36869 ft 434 kts 245°
2026-05-06 15:16 43.47594 6.12759 36863 ft 434 kts 245°
2026-05-06 15:17 43.45291 6.05150 36874 ft 433 kts 246°
2026-05-06 15:17 43.42963 5.97492 36885 ft 434 kts 245°
2026-05-06 15:18 43.40626 5.89842 36896 ft 434 kts 245°
2026-05-06 15:18 43.38284 5.82194 36898 ft 434 kts 245°
2026-05-06 15:19 43.35956 5.74606 36911 ft 434 kts 245°
2026-05-06 15:19 43.33606 5.66969 36914 ft 435 kts 245°
2026-05-06 15:20 43.31243 5.59316 36914 ft 435 kts 245°
2026-05-06 15:20 43.28873 5.51659 36913 ft 436 kts 245°
2026-05-06 15:21 43.26501 5.44012 36918 ft 435 kts 245°
2026-05-06 15:21 43.24145 5.36443 36918 ft 435 kts 245°
2026-05-06 15:22 43.21769 5.28820 36918 ft 435 kts 245°
2026-05-06 15:22 43.19378 5.21189 36917 ft 436 kts 245°
2026-05-06 15:23 43.16979 5.13565 36918 ft 436 kts 245°
2026-05-06 15:23 43.14983 5.07230 36920 ft 436 kts 245°
2026-05-06 15:24 43.12187 4.98377 36922 ft 436 kts 245°
2026-05-06 15:24 43.09799 4.90841 36923 ft 436 kts 245°
2026-05-06 15:25 43.07792 4.84521 36924 ft 436 kts 245°
2026-05-06 15:25 43.04803 4.77332 36925 ft 436 kts 232°
2026-05-06 15:26 42.99815 4.70519 36925 ft 438 kts 224°
2026-05-06 15:26 42.95241 4.65024 36925 ft 438 kts 223°
2026-05-06 15:27 42.91417 4.60487 36923 ft 438 kts 223°
2026-05-06 15:27 42.86837 4.55015 36930 ft 438 kts 223°
2026-05-06 15:28 42.82257 4.49520 36930 ft 439 kts 223°
2026-05-06 15:28 42.77671 4.44018 36930 ft 439 kts 223°
2026-05-06 15:29 42.73115 4.38565 36933 ft 439 kts 223°
2026-05-06 15:29 42.68518 4.33075 36938 ft 440 kts 223°
2026-05-06 15:30 42.63924 4.27601 36935 ft 440 kts 223°
2026-05-06 15:30 42.59330 4.22139 36740 ft 437 kts 223°
2026-05-06 15:30 42.57041 4.19421 36487 ft 438 kts 223°
2026-05-06 15:31 42.54766 4.16724 36157 ft 433 kts 223°
2026-05-06 15:31 42.52536 4.14083 35525 ft 431 kts 223°
2026-05-06 15:31 42.50280 4.11412 34786 ft 431 kts 223°
2026-05-06 15:32 42.45761 4.06069 33115 ft 431 kts 223°
2026-05-06 15:32 42.43497 4.03396 32159 ft 432 kts 223°
2026-05-06 15:32 42.41229 4.00723 31251 ft 432 kts 223°
2026-05-06 15:32 42.38959 3.98048 30334 ft 433 kts 223°
2026-05-06 15:33 42.36694 3.95383 29561 ft 430 kts 223°
2026-05-06 15:33 42.34454 3.92752 28907 ft 423 kts 223°
2026-05-06 15:33 42.32279 3.90200 28279 ft 416 kts 223°
2026-05-06 15:33 42.30108 3.87656 27669 ft 410 kts 223°
2026-05-06 15:34 42.27964 3.85144 27038 ft 405 kts 223°
2026-05-06 15:34 42.25845 3.82662 26438 ft 401 kts 223°
2026-05-06 15:34 42.23754 3.80213 25881 ft 396 kts 223°
2026-05-06 15:34 42.21679 3.77787 25260 ft 393 kts 223°
2026-05-06 15:35 42.19632 3.75397 24915 ft 383 kts 223°
2026-05-06 15:35 42.17657 3.73095 24803 ft 368 kts 224°
2026-05-06 15:35 42.15753 3.70878 24656 ft 355 kts 224°
2026-05-06 15:35 42.13944 3.68772 24549 ft 342 kts 224°
2026-05-06 15:36 42.12249 3.66798 24405 ft 330 kts 224°
2026-05-06 15:36 42.10539 3.64805 24200 ft 321 kts 224°
2026-05-06 15:36 42.08987 3.62665 23719 ft 318 kts 233°
2026-05-06 15:36 42.07829 3.60153 23220 ft 316 kts 244°
2026-05-06 15:37 42.06915 3.57478 22764 ft 314 kts 246°
2026-05-06 15:37 42.06034 3.54781 22317 ft 315 kts 246°
2026-05-06 15:37 42.05151 3.52086 21868 ft 315 kts 246°
2026-05-06 15:37 42.04278 3.49435 21408 ft 314 kts 246°
2026-05-06 15:38 42.03391 3.46752 20982 ft 314 kts 246°
2026-05-06 15:38 42.02502 3.44067 20547 ft 314 kts 246°
2026-05-06 15:38 42.01612 3.41387 20086 ft 314 kts 246°
2026-05-06 15:38 42.00721 3.38709 19636 ft 314 kts 246°
2026-05-06 15:39 41.99827 3.36029 19187 ft 314 kts 246°
2026-05-06 15:39 41.98934 3.33352 18741 ft 314 kts 246°
2026-05-06 15:39 41.98039 3.30670 18267 ft 315 kts 246°
2026-05-06 15:39 41.97144 3.27989 17774 ft 314 kts 246°
2026-05-06 15:40 41.96261 3.25349 17321 ft 313 kts 246°
2026-05-06 15:40 41.95368 3.22685 16854 ft 313 kts 246°
2026-05-06 15:40 41.94335 3.20118 16390 ft 312 kts 238°
2026-05-06 15:40 41.93108 3.17717 15937 ft 311 kts 236°
2026-05-06 15:41 41.91846 3.15354 15490 ft 311 kts 236°
2026-05-06 15:41 41.90584 3.12995 15008 ft 311 kts 236°
2026-05-06 15:41 41.89324 3.10640 14576 ft 311 kts 236°
2026-05-06 15:41 41.88065 3.08281 14127 ft 311 kts 235°
2026-05-06 15:42 41.86822 3.05954 13664 ft 311 kts 235°
2026-05-06 15:42 41.85563 3.03597 13165 ft 312 kts 236°
2026-05-06 15:42 41.84262 3.01159 13006 ft 328 kts 236°
2026-05-06 15:42 41.82938 2.98683 12587 ft 325 kts 236°
2026-05-06 15:43 41.81613 2.96207 11878 ft 329 kts 236°
2026-05-06 15:43 41.80281 2.93720 11425 ft 328 kts 236°
2026-05-06 15:43 41.78954 2.91246 11023 ft 326 kts 236°
2026-05-06 15:43 41.77634 2.88787 10633 ft 324 kts 236°
2026-05-06 15:44 41.76323 2.86342 10246 ft 323 kts 236°
2026-05-06 15:44 41.75026 2.83928 9895 ft 323 kts 236°
2026-05-06 15:44 41.73719 2.81497 9552 ft 321 kts 236°
2026-05-06 15:44 41.72418 2.79068 9284 ft 322 kts 236°
2026-05-06 15:45 41.71108 2.76636 9049 ft 322 kts 236°
2026-05-06 15:45 41.69798 2.74207 8818 ft 321 kts 236°
2026-05-06 15:45 41.68495 2.71792 8569 ft 320 kts 236°
2026-05-06 15:45 41.67196 2.69386 8341 ft 318 kts 236°
2026-05-06 15:46 41.65911 2.67010 8111 ft 311 kts 236°
2026-05-06 15:46 41.64661 2.64688 7868 ft 305 kts 237°
2026-05-06 15:46 41.63681 2.62204 7654 ft 300 kts 251°
2026-05-06 15:46 41.63000 2.59614 7424 ft 299 kts 253°
2026-05-06 15:47 41.62360 2.56990 7204 ft 296 kts 253°
2026-05-06 15:47 41.61724 2.54380 6987 ft 296 kts 253°
2026-05-06 15:47 41.61084 2.51774 6755 ft 295 kts 253°
2026-05-06 15:47 41.60657 2.50047 6613 ft 296 kts 253°
2026-05-06 15:48 41.60023 2.47508 6406 ft 295 kts 253°
2026-05-06 15:48 41.59383 2.44947 6192 ft 285 kts 253°
2026-05-06 15:48 41.58771 2.42497 5980 ft 280 kts 253°
2026-05-06 15:48 41.58155 2.40030 5779 ft 280 kts 253°
2026-05-06 15:49 41.57539 2.37566 5586 ft 279 kts 253°
2026-05-06 15:49 41.56777 2.35175 5372 ft 282 kts 243°
2026-05-06 15:49 41.55682 2.32998 5167 ft 283 kts 231°
2026-05-06 15:49 41.54162 2.31351 4896 ft 282 kts 211°
2026-05-06 15:50 41.52282 2.30730 4619 ft 281 kts 183°
2026-05-06 15:50 41.50344 2.30875 4328 ft 275 kts 176°
2026-05-06 15:50 41.48450 2.31140 4051 ft 273 kts 176°
2026-05-06 15:50 41.46573 2.31399 3784 ft 269 kts 176°
2026-05-06 15:51 41.44741 2.31647 3511 ft 267 kts 176°
2026-05-06 15:51 41.42898 2.31889 3240 ft 265 kts 176°
2026-05-06 15:51 41.41090 2.32127 2978 ft 256 kts 176°
2026-05-06 15:51 41.40281 2.32227 2872 ft 252 kts 176°
2026-05-06 15:52 41.38859 2.32200 2637 ft 243 kts 194°
2026-05-06 15:52 41.37493 2.31094 2505 ft 227 kts 232°
2026-05-06 15:52 41.36852 2.29269 2474 ft 212 kts 250°
2026-05-06 15:52 41.36393 2.27482 2473 ft 195 kts 246°
2026-05-06 15:53 41.35902 2.25921 2492 ft 176 kts 243°
2026-05-06 15:53 41.35398 2.24498 2413 ft 168 kts 243°
2026-05-06 15:53 41.34928 2.23119 2157 ft 164 kts 242°
2026-05-06 15:53 41.34457 2.21734 1918 ft 167 kts 243°
2026-05-06 15:54 41.33975 2.20321 1720 ft 166 kts 242°
2026-05-06 15:54 41.33510 2.18959 1470 ft 157 kts 242°
2026-05-06 15:54 41.33214 2.18089 1332 ft 149 kts 239°
2026-05-06 15:54 41.32816 2.16933 1133 ft 139 kts 242°
2026-05-06 15:55 41.32431 2.15803 978 ft 131 kts 243°
2026-05-06 15:55 41.32061 2.14692 843 ft 132 kts 243°
2026-05-06 15:55 41.31764 2.13790 653 ft 135 kts 242°
2026-05-06 15:55 41.31415 2.12754 476 ft 133 kts 242°
2026-05-06 15:56 41.31015 2.11643 290 ft 133 kts 242°
2026-05-06 15:56 41.30635 2.10534 105 ft 131 kts 242°
2026-05-06 15:56 41.30258 2.09464 26 ft 113 kts 245°
2026-05-06 15:56 41.30025 2.08782 27 ft 49 kts 245°
2026-05-06 15:57 41.29910 2.08458 31 ft 36 kts 238°
2026-05-06 15:57 41.29747 2.08230 27 ft 24 kts 217°
2026-05-06 15:57 41.29632 2.08219 25 ft 17 kts 158°
2026-05-06 15:57 41.29539 2.08273 25 ft 15 kts 156°
2026-05-06 15:58 41.29448 2.08326 27 ft 13 kts 156°
2026-05-06 15:58 41.29399 2.08348 29 ft 5 kts 180°
2026-05-06 15:58 41.29373 2.08321 29 ft 6 kts 233°
2026-05-06 15:58 41.29336 2.08279 28 ft 8 kts 212°
2026-05-06 15:59 41.29288 2.08247 30 ft 6 kts 205°
2026-05-06 15:59 41.29253 2.08227 28 ft 3 kts 203°
2026-05-06 15:59 41.29242 2.08221 27 ft 1 kts 203°
2026-05-06 15:59 41.29239 2.08220 27 ft 0 kts 203°